IS0KST Weather Reports


time (UTC)temp
C
wind
direction
speed
KPH
gust
KPH
rain 1hr
cm
rain 24hr
cm
rain mn
cm
humidity
%
barometer
mb
20260504082004 19 147 8.0 14.5 0.00 0.00 0.00 80 1015.7
20260504081503 19 141 4.8 12.9 0.00 0.00 0.00 79 1015.8
20260504081004 19 134 3.2 9.7 0.00 0.00 0.00 79 1015.8
20260504080503 18 104 3.2 12.9 0.00 0.00 0.00 79 1015.8
20260504050503 16 42 0.0 0.0 0.00 0.00 0.00 74 1015.8
20260504050004 16 42 0.0 0.0 0.00 0.00 0.00 74 1015.8
20260504045504 16 42 0.0 0.0 0.00 0.00 0.00 74 1015.9
20260504045004 16 42 0.0 0.0 0.00 0.00 0.00 74 1015.8
20260504044504 16 42 0.0 0.0 0.00 0.00 0.00 74 1015.9
20260504044004 16 42 0.0 0.0 0.00 0.00 0.00 74 1016.0
20260504043503 16 42 0.0 0.0 0.00 0.00 0.00 74 1016.0
20260504043004 16 42 0.0 0.0 0.00 0.00 0.00 74 1015.9
20260504042503 16 42 0.0 0.0 0.00 0.00 0.00 74 1015.9
20260504041504 16 42 0.0 0.0 0.00 0.00 0.00 74 1015.9
20260504041004 16 42 0.0 0.0 0.00 0.00 0.00 74 1015.9
20260504040503 16 42 0.0 0.0 0.00 0.00 0.00 74 1015.9
20260504035003 15 42 0.0 0.0 0.00 0.00 0.00 73 1015.6
20260504034504 15 42 0.0 0.0 0.00 0.00 0.00 73 1015.6
20260504034004 15 42 0.0 0.0 0.00 0.00 0.00 73 1015.6
20260504033503 15 42 0.0 0.0 0.00 0.00 0.00 73 1015.7
20260504033004 15 42 0.0 0.0 0.00 0.00 0.00 73 1015.6
20260504032503 15 42 0.0 1.6 0.00 0.00 0.00 73 1015.7
20260504032003 15 42 0.0 3.2 0.00 0.00 0.00 72 1015.6
20260504031504 15 42 0.0 3.2 0.00 0.00 0.00 72 1015.7
20260504031004 15 42 0.0 3.2 0.00 0.00 0.00 72 1015.8
20260504030504 15 42 1.6 3.2 0.00 0.00 0.00 72 1015.9
20260504030003 15 42 0.0 0.0 0.00 0.00 0.00 72 1016.1
20260504025504 15 42 0.0 0.0 0.00 0.00 0.00 72 1016.1
20260504025003 15 42 0.0 0.0 0.00 0.00 0.00 72 1016.2
20260504024504 15 42 0.0 0.0 0.00 0.00 0.00 72 1016.2
20260504024004 15 42 0.0 0.0 0.00 0.00 0.00 72 1016.1
20260504023004 15 42 0.0 3.2 0.00 0.00 0.00 72 1016.1
20260504022503 15 42 1.6 4.8 0.00 0.00 0.00 72 1016.2
20260504022004 15 42 0.0 1.6 0.00 0.00 0.00 72 1016.2
20260504021004 15 42 0.0 0.0 0.00 0.00 0.00 72 1016.1
20260504020504 15 42 0.0 1.6 0.00 0.00 0.00 73 1016.1
20260504020004 15 42 0.0 3.2 0.00 0.00 0.00 73 1016.0
20260504015004 15 42 1.6 4.8 0.00 0.00 0.00 73 1016.0
20260504014003 15 31 1.6 4.8 0.00 0.00 0.00 74 1016.0
20260504013504 15 31 0.0 4.8 0.00 0.00 0.00 74 1016.0
20260504013004 15 31 0.0 4.8 0.00 0.00 0.00 74 1016.1
20260504012503 15 31 1.6 4.8 0.00 0.00 0.00 73 1016.0
20260504012004 16 22 3.2 4.8 0.00 0.00 0.00 74 1016.1
20260504011504 16 15 3.2 4.8 0.00 0.00 0.00 74 1016.1
20260504011003 16 16 1.6 4.8 0.00 0.00 0.00 74 1016.1
20260504010504 16 16 1.6 4.8 0.00 0.00 0.00 73 1016.3
20260504010004 16 16 4.8 4.8 0.00 0.00 0.00 74 1016.3
20260504005503 16 121 3.2 8.0 0.00 0.00 0.00 75 1016.4
20260504005004 16 117 1.6 4.8 0.00 0.00 0.00 74 1016.6
20260504004504 16 113 1.6 4.8 0.00 0.00 0.00 72 1016.7
20260504004004 16 113 1.6 4.8 0.00 0.00 0.00 73 1016.8
20260504003503 17 145 0.0 3.2 0.00 0.00 0.00 74 1016.9
20260504003003 17 145 3.2 11.3 0.00 0.00 0.00 74 1017.1
20260504002004 16 199 3.2 11.3 0.00 0.00 0.00 72 1017.2
20260504001004 16 96 1.6 1.6 0.00 0.00 0.00 70 1017.2
20260504000004 16 96 0.0 1.6 0.00 0.00 0.00 71 1017.4
20260503235004 16 96 0.0 0.0 0.00 0.00 0.00 71 1017.3
20260503234504 16 96 0.0 4.8 0.00 0.00 0.00 71 1017.3
20260503234004 16 96 1.6 4.8 0.00 0.00 0.00 71 1017.3
20260503233504 16 93 1.6 4.8 0.00 0.00 0.00 72 1017.3
20260503232504 16 80 4.8 11.3 0.00 0.00 0.00 72 1017.3
20260503232004 16 101 4.8 11.3 0.00 0.00 0.00 72 1017.3
20260503231504 16 85 6.4 19.3 0.00 0.00 0.00 71 1017.3
20260503231004 17 93 8.0 19.3 0.00 0.00 0.00 72 1017.1
20260503230003 17 106 4.8 14.5 0.00 0.00 0.00 74 1018.3
20260503225003 17 121 8.0 12.9 0.00 0.00 0.00 74 1018.3
20260503224504 17 117 3.2 14.5 0.00 0.00 0.00 74 1018.3
20260503224003 17 148 4.8 14.5 0.00 0.00 0.00 75 1018.3
20260503223504 17 140 6.4 12.9 0.00 0.00 0.00 75 1018.1
20260503222504 17 158 9.7 19.3 0.00 0.00 0.00 74 1018.1
20260503221004 17 151 8.0 19.3 0.00 0.00 0.00 73 1017.7
20260503220004 17 107 8.0 20.9 0.00 0.00 0.00 72 1017.3
20260503215003 17 103 6.4 19.3 0.00 0.00 0.00 71 1017.2
20260503214503 17 110 8.0 16.1 0.00 0.00 0.00 71 1017.2
20260503214003 17 101 8.0 16.1 0.00 0.00 0.00 71 1017.2
20260503213504 17 105 6.4 16.1 0.00 0.00 0.00 70 1017.5
20260503213003 17 95 6.4 14.5 0.00 0.00 0.00 70 1017.6
20260503212504 17 110 4.8 12.9 0.00 0.00 0.00 70 1017.6
20260503211504 17 120 3.2 12.9 0.00 0.00 0.00 69 1017.5
20260503210503 17 103 8.0 14.5 0.00 0.00 0.00 69 1017.4
20260503210003 17 98 4.8 12.9 0.00 0.00 0.00 70 1017.4
20260503205504 17 96 6.4 14.5 0.00 0.00 0.00 70 1017.6
20260503204504 17 105 8.0 12.9 0.00 0.00 0.00 70 1017.5
20260503204003 17 94 4.8 14.5 0.00 0.00 0.00 70 1017.6
20260503203504 17 91 6.4 11.3 0.00 0.00 0.00 70 1017.6
20260503203004 17 96 4.8 11.3 0.00 0.00 0.00 68 1017.7
20260503202504 17 82 4.8 14.5 0.00 0.00 0.00 69 1017.6
20260503202003 17 95 9.7 19.3 0.00 0.00 0.00 71 1017.4
20260503201504 17 105 6.4 14.5 0.00 0.00 0.00 72 1017.4
20260503201004 17 104 8.0 16.1 0.00 0.00 0.00 73 1017.5
20260503200503 17 124 8.0 14.5 0.00 0.00 0.00 73 1017.6
20260503195003 17 124 8.0 14.5 0.00 0.00 0.00 74 1017.6
20260503194504 17 129 6.4 19.3 0.00 0.00 0.00 74 1017.6
20260503194003 17 135 6.4 19.3 0.00 0.00 0.00 74 1017.6
20260503193504 17 143 6.4 14.5 0.00 0.00 0.00 75 1017.5
20260503193004 17 125 8.0 19.3 0.00 0.00 0.00 74 1017.5
20260503192504 17 136 8.0 19.3 0.00 0.00 0.00 74 1017.5
20260503192004 17 133 9.7 19.3 0.00 0.00 0.00 74 1017.3
20260503191004 17 121 11.3 24.1 0.00 0.00 0.00 74 1017.1
20260503190504 17 121 8.0 16.1 0.00 0.00 0.00 74 1017.0
20260503190003 17 115 6.4 19.3 0.00 0.00 0.00 73 1017.0
20260503185504 17 139 9.7 19.3 0.00 0.00 0.00 72 1016.9
20260503184004 18 128 9.7 19.3 0.00 0.00 0.00 69 1016.8
20260503183504 18 143 8.0 19.3 0.00 0.00 0.00 67 1016.7
20260503183004 18 128 8.0 16.1 0.00 0.00 0.00 66 1016.7
20260503182503 18 125 8.0 16.1 0.00 0.00 0.00 65 1016.6
20260503182005 18 121 8.0 19.3 0.00 0.00 0.00 64 1016.6
20260503181505 18 138 8.0 19.3 0.00 0.00 0.00 62 1016.6
20260503181004 18 134 4.8 19.3 0.00 0.00 0.00 62 1016.6
20260503180503 18 128 6.4 19.3 0.00 0.00 0.00 61 1016.7
20260503180004 18 136 4.8 12.9 0.00 0.00 0.00 60 1016.5
20260503175504 18 150 8.0 16.1 0.00 0.00 0.00 61 1016.5
20260503175004 18 146 6.4 19.3 0.00 0.00 0.00 59 1016.5
20260503174504 18 132 9.7 19.3 0.00 0.00 0.00 59 1016.4
20260503174003 18 147 6.4 16.1 0.00 0.00 0.00 62 1016.4
20260503173504 18 120 6.4 12.9 0.00 0.00 0.00 64 1016.6
20260503172504 18 144 6.4 19.3 0.00 0.00 0.00 64 1016.6
20260503172003 18 142 4.8 11.3 0.00 0.00 0.00 65 1016.6
20260503171004 18 139 8.0 12.9 0.00 0.00 0.00 64 1016.8
20260503170503 18 129 6.4 12.9 0.00 0.00 0.00 65 1016.8
20260503151004 20 143 9.7 20.9 0.00 0.00 0.00 68 1017.3
20260503131004 19 143 12.9 24.1 0.00 0.00 0.00 66 1018.5
20260503110503 19 137 12.9 22.5 0.00 0.00 0.00 62 1019.4